�N����,����,�~����,�C��,���x,�C��,����,���ϕ���,�ő�u�ԕ���,�ő厞����,���˗�,�I�_���x,�n�����x,�ő啗���N��,DTYPE
"19/03/09","00:10",0.0,0.8,90.0,1019.9,304.7,1.1,2.2,317.8,0.00,-0.6,7.5,"00:09:44",1
"19/03/09","00:20",0.0,0.6,90.9,1019.7,322.4,1.6,2.5,331.2,0.00,-0.7,7.7,"00:15:28",1
"19/03/09","00:30",0.0,0.6,91.1,1020.1,333.3,1.3,2.5,319.3,0.00,-0.6,7.6,"00:28:32",1
"19/03/09","00:40",0.0,0.3,90.6,1019.9,319.0,1.5,2.6,332.7,0.00,-1.0,7.6,"00:30:40",1
"19/03/09","00:50",0.0,0.3,92.2,1020.1,304.3,1.0,1.9,312.4,0.00,-0.8,7.7,"00:42:24",1
"19/03/09","01:00",0.0,0.3,92.1,1020.1,232.8,0.3,1.0,320.4,0.00,-0.8,7.4,"00:54:16",1
"19/03/09","01:10",0.0,0.0,92.0,1019.9,311.6,1.2,2.1,327.6,0.00,-1.1,7.2,"01:07:36",1
"19/03/09","01:20",0.0,-0.1,93.2,1019.7,313.1,1.1,1.6,320.1,0.00,-1.0,7.3,"01:14:24",1
"19/03/09","01:30",0.0,-0.2,93.2,1019.4,318.2,1.2,2.4,334.4,0.00,-1.1,7.2,"01:25:36",1
"19/03/09","01:40",0.0,-0.1,94.3,1019.4,319.4,1.3,2.6,344.1,0.00,-0.9,7.2,"01:39:52",1
"19/03/09","01:50",0.0,0.1,93.2,1019.7,335.2,1.5,2.5,345.7,0.00,-0.8,7.2,"01:45:04",1
"19/03/09","02:00",0.0,-0.3,93.5,1019.9,331.0,0.6,1.8,324.1,0.00,-1.2,7.2,"01:50:08",1
"19/03/09","02:10",0.0,-0.6,93.6,1019.7,315.7,1.1,1.8,324.2,0.00,-1.5,7.0,"02:00:56",1
"19/03/09","02:20",0.0,-0.7,94.6,1019.4,316.1,1.3,2.5,325.3,0.00,-1.4,6.9,"02:12:16",1
"19/03/09","02:30",0.0,-0.7,94.9,1019.4,298.0,0.6,1.3,314.9,0.00,-1.4,6.9,"02:28:40",1
"19/03/09","02:40",0.0,-0.8,94.7,1019.2,329.5,1.8,2.5,335.9,0.00,-1.5,6.7,"02:36:24",1
"19/03/09","02:50",0.0,-0.8,95.3,1019.4,260.8,0.3,1.3,344.1,0.00,-1.4,6.7,"02:40:24",1
"19/03/09","03:00",0.0,-0.7,95.3,1019.0,319.6,1.3,2.5,335.4,0.00,-1.3,7.0,"02:59:04",1
"19/03/09","03:10",0.0,-1.2,95.3,1019.2,322.5,1.3,2.5,330.9,0.00,-1.8,6.7,"03:00:16",1
"19/03/09","03:20",0.0,-1.1,96.4,1019.0,303.5,1.6,2.2,321.0,0.00,-1.6,6.6,"03:16:24",1
"19/03/09","03:30",0.0,-1.0,96.4,1019.2,310.2,1.8,2.1,325.7,0.00,-1.5,6.7,"03:20:08",1
"19/03/09","03:40",0.0,-0.9,96.1,1019.0,317.3,2.0,2.5,322.3,0.00,-1.4,6.6,"03:34:16",1
"19/03/09","03:50",0.0,-0.7,96.5,1019.0,308.4,1.6,2.2,271.5,0.00,-1.1,6.4,"03:48:00",1
"19/03/09","04:00",0.0,-0.7,96.3,1019.0,295.8,1.6,2.0,315.7,0.00,-1.2,6.5,"03:51:12",1
"19/03/09","04:10",0.0,-0.7,96.5,1019.2,298.1,1.5,2.1,312.8,0.00,-1.1,6.4,"04:05:04",1
"19/03/09","04:20",0.0,-0.9,96.4,1019.2,317.3,1.5,2.1,318.7,0.00,-1.4,6.2,"04:18:24",1
"19/03/09","04:30",0.0,-1.2,96.3,1019.2,310.1,1.2,2.1,333.4,0.00,-1.7,6.5,"04:20:24",1
"19/03/09","04:40",0.0,-1.6,96.9,1019.2,288.2,1.0,1.7,316.9,0.00,-2.0,6.2,"04:37:08",1
"19/03/09","04:50",0.0,-1.7,97.1,1019.4,299.7,1.5,2.0,310.3,0.00,-2.1,6.3,"04:40:56",1
"19/03/09","05:00",0.0,-1.2,97.3,1019.0,333.4,1.1,1.8,311.3,0.00,-1.5,6.2,"04:50:56",1
"19/03/09","05:10",0.0,-1.5,97.1,1019.0,309.4,1.6,2.0,307.2,0.00,-1.9,6.1,"05:05:36",1
"19/03/09","05:20",0.0,-1.7,97.3,1019.2,301.2,1.3,1.9,313.7,0.00,-2.0,6.0,"05:11:28",1
"19/03/09","05:30",0.0,-1.6,98.1,1019.4,286.0,0.7,1.7,306.3,0.00,-1.8,5.9,"05:26:10",1
"19/03/09","05:40",0.0,-1.8,96.3,1019.2,314.0,1.7,2.6,315.9,0.00,-2.3,5.8,"05:38:48",1
"19/03/09","05:50",0.0,-1.8,97.9,1019.4,324.2,2.1,2.6,324.0,0.00,-2.0,6.0,"05:41:04",1
"19/03/09","06:00",0.0,-1.8,98.0,1019.4,305.1,1.5,1.8,314.0,0.00,-2.0,6.0,"05:50:56",1
"19/03/09","06:10",0.0,-1.6,97.7,1019.4,291.6,1.3,1.8,313.9,0.00,-1.9,5.7,"06:09:28",1
"19/03/09","06:20",0.0,-1.8,97.5,1019.7,308.9,1.3,1.6,329.6,0.00,-2.1,5.8,"06:12:00",1
"19/03/09","06:30",0.0,-1.9,98.0,1019.9,300.7,1.2,1.8,321.0,0.00,-2.1,5.7,"06:21:36",1
"19/03/09","06:40",0.0,-1.8,97.7,1019.7,283.5,1.1,1.3,286.8,0.00,-2.1,5.8,"06:39:24",1
"19/03/09","06:50",0.0,-1.9,98.6,1019.4,310.4,1.5,1.8,309.5,0.00,-2.1,5.7,"06:42:56",1
"19/03/09","07:00",0.0,-1.7,97.8,1019.9,313.2,1.6,2.0,317.0,0.00,-2.0,5.6,"06:52:08",1
"19/03/09","07:10",0.0,-1.5,98.7,1020.1,315.0,1.2,1.6,326.1,0.00,-1.6,5.7,"07:00:08",1
"19/03/09","07:20",0.0,-0.9,97.4,1020.1,311.6,2.3,3.5,321.2,0.01,-1.2,5.7,"07:19:44",1
"19/03/09","07:30",0.0,-0.7,98.6,1020.4,311.2,2.5,3.4,321.0,0.02,-0.9,5.6,"07:20:08",1
"19/03/09","07:40",0.0,0.6,97.7,1020.8,322.8,2.0,2.6,321.1,0.03,0.3,5.5,"07:30:32",1
"19/03/09","07:50",0.0,0.9,98.3,1020.8,286.0,1.1,1.4,286.2,0.03,0.7,5.9,"07:45:08",1
"19/03/09","08:00",0.0,1.2,96.7,1021.1,252.6,0.3,0.6,263.9,0.05,0.8,5.7,"07:54:48",1
"19/03/09","08:10",0.0,1.8,96.6,1021.5,286.6,0.8,1.9,323.8,0.07,1.4,5.9,"08:06:06",1
"19/03/09","08:20",0.0,2.4,95.6,1021.5,278.9,0.8,1.1,300.6,0.10,1.8,6.0,"08:11:48",1
"19/03/09","08:30",0.0,2.9,93.1,1021.8,254.1,0.6,1.0,259.5,0.13,1.9,6.1,"08:20:24",1
"19/03/09","08:40",0.0,3.6,89.4,1022.0,237.6,0.7,1.2,251.7,0.16,2.1,6.1,"08:38:12",1
"19/03/09","08:50",0.0,4.3,84.4,1022.3,223.8,0.6,1.1,294.1,0.19,1.9,6.1,"08:42:52",1
"19/03/09","09:00",0.0,4.5,81.5,1022.5,243.4,0.8,1.4,252.4,0.21,1.7,6.2,"08:58:44",1
"19/03/09","09:10",0.0,5.3,79.2,1022.5,275.1,1.0,1.9,315.0,0.24,2.0,6.3,"09:03:06",1
"19/03/09","09:20",0.0,6.1,76.0,1022.7,249.2,0.6,1.3,250.3,0.27,2.2,6.6,"09:11:28",1
"19/03/09","09:30",0.0,6.4,73.5,1023.0,253.6,1.0,2.1,244.0,0.30,2.1,6.7,"09:23:36",1
"19/03/09","09:40",0.0,7.1,70.4,1023.2,275.1,0.7,1.4,270.6,0.32,2.1,6.9,"09:37:04",1
"19/03/09","09:50",0.0,7.3,69.2,1023.2,259.9,0.7,1.8,245.5,0.35,2.1,7.0,"09:42:56",1
"19/03/09","10:00",0.0,7.8,64.6,1023.2,347.3,0.8,1.6,301.9,0.37,1.6,7.3,"09:54:24",1
"19/03/09","10:10",0.0,8.4,62.0,1023.0,272.6,0.8,2.4,207.7,0.40,1.6,7.5,"10:05:24",1
"19/03/09","10:20",0.0,8.7,58.3,1023.2,276.0,0.8,2.2,198.7,0.42,1.0,7.6,"10:14:08",1
"19/03/09","10:30",0.0,9.3,56.9,1023.2,213.5,1.0,2.0,135.7,0.44,1.2,7.9,"10:29:04",1
"19/03/09","10:40",0.0,9.2,55.2,1022.7,170.4,1.1,2.1,146.8,0.46,0.7,8.2,"10:31:28",1
"19/03/09","10:50",0.0,10.0,56.9,1022.7,184.2,1.2,3.3,116.3,0.48,1.9,8.7,"10:47:52",1
"19/03/09","11:00",0.0,10.1,52.9,1022.3,174.9,1.1,3.7,151.2,0.49,1.0,8.7,"10:59:20",1
"19/03/09","11:10",0.0,11.0,54.7,1022.0,214.3,1.8,4.0,202.2,0.50,2.3,8.9,"11:02:16",1
"19/03/09","11:20",0.0,10.8,52.5,1022.0,195.0,1.6,2.9,195.8,0.52,1.5,9.4,"11:17:12",1
"19/03/09","11:30",0.0,11.1,50.7,1021.5,163.0,1.5,3.4,135.9,0.53,1.3,9.2,"11:22:16",1
"19/03/09","11:40",0.0,11.6,47.9,1022.0,168.5,1.8,4.1,48.7,0.54,1.0,9.7,"11:37:52",1
"19/03/09","11:50",0.0,12.3,49.7,1021.1,155.7,2.1,5.0,126.1,0.55,2.1,9.9,"11:41:36",1
"19/03/09","12:00",0.0,12.0,48.4,1021.1,156.9,2.0,4.0,169.5,0.55,1.5,10.1,"11:56:08",1
"19/03/09","12:10",0.0,12.6,48.5,1021.1,129.2,2.0,4.4,122.2,0.56,2.1,10.4,"12:04:32",1
"19/03/09","12:20",0.0,12.9,47.6,1020.8,144.9,1.7,3.5,114.1,0.56,2.1,10.7,"12:17:44",1
"19/03/09","12:30",0.0,13.0,49.2,1020.6,144.9,1.8,4.3,143.4,0.53,2.6,10.7,"12:26:00",1
"19/03/09","12:40",0.0,13.2,49.2,1020.6,128.8,2.6,4.9,136.5,0.57,2.8,11.1,"12:37:36",1
"19/03/09","12:50",0.0,13.9,49.0,1020.4,145.7,2.0,3.2,143.6,0.57,3.4,11.3,"12:47:44",1
"19/03/09","13:00",0.0,14.1,47.4,1020.4,178.2,2.3,4.2,217.1,0.56,3.1,11.7,"12:58:56",1
"19/03/09","13:10",0.0,14.2,47.8,1020.4,188.2,2.7,4.7,192.8,0.55,3.3,11.7,"13:00:56",1
"19/03/09","13:20",0.0,14.4,45.5,1020.1,225.3,3.4,7.1,201.0,0.53,2.8,11.9,"13:18:24",1
"19/03/09","13:30",0.0,14.4,47.9,1019.9,227.5,3.7,7.4,227.2,0.55,3.5,12.1,"13:22:40",1
"19/03/09","13:40",0.0,14.2,48.9,1019.4,226.6,3.9,8.6,230.6,0.53,3.7,12.2,"13:31:28",1
"19/03/09","13:50",0.0,14.7,50.1,1019.2,208.8,3.5,6.6,197.3,0.53,4.5,12.3,"13:46:40",1
"19/03/09","14:00",0.0,15.1,49.6,1019.0,213.8,2.8,5.5,189.6,0.52,4.7,12.4,"13:53:20",1
"19/03/09","14:10",0.0,14.8,50.7,1019.2,209.6,3.4,7.9,225.2,0.49,4.7,12.4,"14:08:56",1
"19/03/09","14:20",0.0,15.3,51.1,1019.2,224.2,3.0,5.0,211.1,0.48,5.3,12.6,"14:11:04",1
"19/03/09","14:30",0.0,15.0,49.8,1019.0,220.3,3.4,6.5,231.2,0.43,4.7,12.7,"14:26:40",1
"19/03/09","14:40",0.0,14.9,49.9,1019.0,213.4,2.8,6.0,178.7,0.38,4.6,12.8,"14:38:24",1
"19/03/09","14:50",0.0,14.8,50.8,1019.0,236.9,2.8,6.7,227.0,0.29,4.8,12.8,"14:45:36",1
"19/03/09","15:00",0.0,14.2,50.1,1019.2,216.5,3.9,7.0,195.7,0.32,4.0,12.8,"14:56:24",1
"19/03/09","15:10",0.0,15.1,49.7,1019.0,261.0,2.6,6.3,229.8,0.35,4.7,12.9,"15:01:36",1
"19/03/09","15:20",0.0,14.7,50.7,1019.0,214.4,2.8,6.0,233.7,0.39,4.6,12.7,"15:14:40",1
"19/03/09","15:30",0.0,14.9,50.3,1018.5,254.1,2.1,4.4,304.5,0.37,4.7,13.0,"15:25:20",1
"19/03/09","15:40",0.0,15.0,50.3,1018.5,227.0,3.0,5.4,228.9,0.33,4.8,13.0,"15:31:28",1
"19/03/09","15:50",0.0,14.9,49.0,1018.2,214.8,3.4,8.0,230.0,0.30,4.3,12.8,"15:45:04",1
"19/03/09","16:00",0.0,14.6,49.2,1018.0,213.7,3.1,5.6,214.4,0.28,4.1,13.0,"15:52:40",1
"19/03/09","16:10",0.0,14.7,47.1,1018.2,215.1,3.0,5.8,227.4,0.25,3.6,12.9,"16:09:12",1
"19/03/09","16:20",0.0,15.0,47.4,1018.0,238.8,2.2,4.0,203.1,0.22,3.9,12.8,"16:11:12",1
"19/03/09","16:30",0.0,15.1,46.4,1018.2,237.1,2.2,5.1,249.1,0.17,3.7,12.9,"16:29:28",1
"19/03/09","16:40",0.0,14.7,46.2,1018.0,252.0,3.0,5.1,228.1,0.17,3.3,12.9,"16:39:36",1
"19/03/09","16:50",0.0,14.6,45.8,1018.0,263.3,2.6,4.8,256.1,0.13,3.1,12.9,"16:49:20",1
"19/03/09","17:00",0.0,14.6,47.3,1018.2,251.4,1.5,4.1,321.9,0.10,3.6,12.9,"16:52:48",1
"19/03/09","17:10",0.0,14.7,46.9,1017.5,249.6,1.6,4.0,199.8,0.09,3.5,12.7,"17:01:44",1
"19/03/09","17:20",0.0,14.3,47.2,1017.5,240.4,1.5,2.6,226.0,0.05,3.2,12.6,"17:12:00",1
"19/03/09","17:30",0.0,13.9,48.0,1018.0,242.0,1.8,3.7,208.8,0.02,3.1,12.7,"17:23:36",1
"19/03/09","17:40",0.0,13.4,49.6,1017.8,240.4,1.6,3.2,224.1,0.00,3.1,12.6,"17:35:44",1
"19/03/09","17:50",0.0,13.3,50.2,1017.5,228.3,1.1,2.2,193.9,0.01,3.2,12.4,"17:49:28",1
"19/03/09","18:00",0.0,13.0,51.0,1017.5,213.3,1.0,2.6,192.6,0.00,3.1,12.2,"17:51:20",1
"19/03/09","18:10",0.0,12.7,51.9,1017.1,277.0,0.8,1.7,267.8,0.00,3.1,12.0,"18:03:48",1
"19/03/09","18:20",0.0,12.2,55.3,1017.1,311.8,1.7,2.5,306.3,0.00,3.6,11.9,"18:11:46",1
"19/03/09","18:30",0.0,11.3,59.5,1016.8,300.3,2.1,2.8,316.3,0.00,3.7,11.9,"18:24:54",1
"19/03/09","18:40",0.0,10.3,63.4,1017.1,304.1,1.8,2.5,307.9,0.00,3.7,11.7,"18:38:40",1
"19/03/09","18:50",0.0,9.7,66.6,1017.1,295.5,2.0,2.6,298.8,0.00,3.8,11.6,"18:48:08",1
"19/03/09","19:00",0.0,9.3,68.7,1017.5,295.7,1.8,2.6,317.5,0.00,3.9,11.5,"18:50:48",1
"19/03/09","19:10",0.0,9.1,70.1,1017.5,282.2,1.8,2.2,279.1,0.00,4.0,11.4,"19:03:28",1
"19/03/09","19:20",0.0,8.8,71.5,1017.8,289.1,2.2,2.8,303.5,0.00,4.0,11.2,"19:13:20",1
"19/03/09","19:30",0.0,8.7,71.9,1017.5,299.5,2.1,2.7,300.3,0.00,4.0,11.2,"19:29:20",1
"19/03/09","19:40",0.0,8.5,73.1,1017.8,306.9,2.3,4.1,330.6,0.00,4.0,11.2,"19:34:40",1
"19/03/09","19:50",0.0,8.2,73.8,1018.0,297.5,1.6,2.8,326.6,0.00,3.8,11.0,"19:40:32",1
"19/03/09","20:00",0.0,7.9,74.6,1018.0,278.3,1.3,1.7,273.6,0.00,3.7,10.7,"19:53:28",1
"19/03/09","20:10",0.0,7.8,76.1,1017.8,304.0,3.1,4.5,335.8,0.00,3.9,10.6,"20:06:40",1
"19/03/09","20:20",0.0,7.6,77.1,1017.5,303.1,2.0,3.2,308.0,0.00,3.9,10.6,"20:10:02",1
"19/03/09","20:30",0.0,7.3,79.0,1017.5,290.3,1.5,3.6,318.6,0.00,3.9,10.8,"20:20:48",1
"19/03/09","20:40",0.0,7.1,79.1,1017.8,290.4,1.6,2.5,300.1,0.00,3.8,10.5,"20:32:08",1
"19/03/09","20:50",0.0,6.9,80.3,1017.8,297.2,2.1,2.9,319.7,0.00,3.8,10.3,"20:48:08",1
"19/03/09","21:00",0.0,6.9,81.3,1017.5,313.8,2.3,3.3,322.5,0.00,4.0,10.0,"20:56:48",1
"19/03/09","21:10",0.0,6.8,81.7,1017.5,282.3,2.2,3.3,311.3,0.00,3.9,10.1,"21:04:08",1
"19/03/09","21:20",0.0,6.8,81.7,1017.5,295.6,2.3,3.1,307.0,0.00,3.9,10.0,"21:10:48",1
"19/03/09","21:30",0.0,6.9,82.2,1017.8,309.7,2.3,3.5,325.4,0.00,4.1,9.9,"21:25:04",1
"19/03/09","21:40",0.0,6.7,81.7,1018.0,293.2,2.1,3.6,309.5,0.00,3.8,9.7,"21:31:20",1
"19/03/09","21:50",0.0,6.6,82.3,1018.0,286.0,1.8,2.4,263.4,0.00,3.8,9.7,"21:48:00",1
"19/03/09","22:00",0.0,6.2,82.4,1017.8,312.8,2.1,3.2,320.4,0.00,3.5,9.7,"21:56:32",1
"19/03/09","22:10",0.0,5.8,83.4,1018.2,300.5,1.7,2.4,321.3,0.00,3.2,9.6,"22:03:44",1
"19/03/09","22:20",0.0,5.6,85.2,1018.7,294.2,1.5,2.1,316.4,0.00,3.4,9.5,"22:13:28",1
"19/03/09","22:30",0.0,5.4,85.6,1018.2,327.8,2.2,3.1,330.5,0.00,3.2,9.5,"22:24:40",1
"19/03/09","22:40",0.0,5.3,86.3,1018.2,299.4,1.7,2.8,324.7,0.00,3.2,9.4,"22:32:16",1
"19/03/09","22:50",0.0,5.7,87.2,1018.2,280.1,1.7,2.7,329.2,0.00,3.8,9.2,"22:43:52",1
"19/03/09","23:00",0.0,5.9,86.1,1018.0,305.2,2.1,3.4,330.6,0.00,3.8,9.2,"22:56:32",1
"19/03/09","23:10",0.0,5.3,85.7,1018.2,321.1,1.5,3.6,337.5,0.00,3.1,9.2,"23:04:08",1
"19/03/09","23:20",0.0,4.8,86.8,1018.2,301.7,1.5,2.2,296.6,0.00,2.8,9.1,"23:10:56",1
"19/03/09","23:30",0.0,4.5,88.6,1017.8,308.5,2.0,2.8,313.8,0.00,2.8,9.1,"23:21:36",1
"19/03/09","23:40",0.0,4.5,89.3,1017.8,297.1,1.6,2.0,309.7,0.00,2.9,9.0,"23:38:32",1
"19/03/09","23:50",0.0,4.7,89.8,1017.8,288.9,1.7,2.1,305.4,0.00,3.2,9.0,"23:48:56",1
"19/03/09","24:00",0.0,4.8,90.0,1017.5,305.8,2.0,3.2,318.2,0.00,3.3,8.9,"23:57:12",1
